Location: München
(48.1351°N, 11.5820°E)
Time: 22:30:28
(UTC+01:00)

ISS - Pass Details

Date: 29 January 2020
Orbit: 415 x 423 km, 51.6° (Epoch: 25 February)

Event Time Altitude Azimuth Distance (km) Brightness Sun altitude
Rises 19:13:29 0° 284° (WNW) 2,379 1.4 -21.0°
Reaches altitude 10° 19:15:39 10° 290° (WNW) 1,513 0.0 -21.3°
Enters shadow 19:18:23 41° 334° (NNW) 632 -2.8 -21.8°
